Location: Newark
(43.6583°N, 1.6617°E)
Time: 17:02:59
(UTC+00:00)

Transit 4A - Pass Details

Date: 29 August 2019
Orbit: 865 x 980 km, 66.8° (Epoch: 21 September)

Event Time Altitude Azimuth Distance (km) Brightness Sun altitude
Rises 02:01:37 0° 324° (NW) 3,621 11.2 -29.5°
Reaches altitude 10° 02:04:16 10° 319° (NW) 2,655 10.4 -29.2°
Enters shadow 02:07:12 28° 305° (NW) 1,685 9.2 -28.9°
Maximum altitude 02:10:09 48° 247° (WSW) 1,182 - -28.6°
Drops below altitude 10° 02:15:49 10° 174° (S) 2,562 - -27.9°
Sets 02:18:21 0° 169° (S) 3,482 - -27.6°
